User: anonymous   Login
Location: Feydey
(46.3431°N, 7.0106°E)
Time: 05:33:05
(UTC+00:00)
Language:

Cosmos 2322 - Orbit

View from above orbital plane
View from above orbital plane
View from above satellite
View from above satellite

Ground track
Ground track

The orbit data is extracted from the following two-line orbital elements,

1 23704U 95058A   21267.76942857  .00000198  00000-0  13082-3 0  9994
2 23704  70.9868  12.6950 0011389 252.7209 107.2667 14.13432577336343
Epoch (UTC): 24 September 2021 18:27:58
Eccentricity: 0.0011389
inclination: 70.9868°
perigee height: 839 km
apogee height: 856 km
right ascension of ascending node: 12.6950°
argument of perigee: 252.7209°
revolutions per day: 14.13432577
mean anomaly at epoch: 107.2667°
orbit number at epoch: 33634

The dashed part of the orbit path shows where the satellite is in the earth's shadow,  

DLR